sat.trackr.live / text

‹ back to catalog

SPHEREX (MIDEX 9)

NORAD 63182 · 2025-047E

PAYLOAD ACTIVE UNKNOWN

§ Identity

Operator
Country
US
Launch date
2025-03-12
Launch site
AFWTR
Launch vehicle
Mass (kg)
RCS (m²)

External: N2YO · Heavens-Above · Gunter

§ Orbital elements

Epoch: 2026-05-25T02:32:50.617824Z

Period
97.69 min
Inclination
97.9579°
Eccentricity
0.0008937
Mean motion
14.74012952 rev/d
Perigee alt
642.0 km
Apogee alt
654.6 km
Semi-major
7,026.4 km
B*
1.2586e-4
RAAN
330.3590°
Arg perigee
266.7986°
Mean anomaly
93.2200°
Rev number
6,464

§ Raw data

SPHEREX (MIDEX 9)1 63182U 25047E   26145.10614141  .00000778  00000+0  12586-3 0  99902 63182  97.9579 330.3590 0008937 266.7986  93.2200 14.74012952 64643

JSON: /api/v1/satellites/63182 · /tle

For live sub-satellite position, see the globe view (requires WebGL).

§ Visibility from observer

Set your observer location to see the next 7 days of passes ≥ 10°. The values pass through the URL so the page stays shareable.

No JS? Fill the form by hand. The geolocation button needs JavaScript.